Regional Weather Roundup
Issued by NWS

Home | Current Version | Previous Version | Text Only | Print | Product List | Glossary On
Versions: 1 2 3 4 5 6 7 8 9 10 11 12 13 14 15 16 17 18 19 20 21 22 23 24 25 26 27 28 29 30 31 32 33 34 35 36 37 38 39 40 41 42 43 44 45 46 47 48 49 50
587
ASUS43 KDTX 060301
RWRMI
MICHIGAN HOURLY REGIONAL WEATHER ROUNDUP
NATIONAL WEATHER SERVICE DETROIT/PONTIAC MI
1000 PM EST FRI FEB 05 2016

NOTE: "FAIR" INDICATES FEW OR NO CLOUDS BELOW 12,000 FEET WITH NO
SIGNIFICANT WEATHER AND/OR OBSTRUCTION TO VISIBILITY.

MIZ047>049-052>055-059>063-066>070-074>076-081>083-060400-
SOUTHEAST LOWER MICHIGAN

CITY           SKY/WX    TMP DP  RH WIND       PRES   REMARKS
ADRIAN         CLOUDY    38  25  59 W9        30.29F WCI  31
ALMA           CLOUDY    28  22  78 W8        30.28F WCI  20
ANN ARBOR      CLOUDY    31  26  82 SW6       30.27F WCI  25
BAD AXE        CLOUDY    30  28  93 CALM      30.26F
CARO           CLOUDY    29  28  96 CALM      30.26F FOG
DETROIT CITY   CLOUDY    34  26  72 NW7       30.27F WCI  28
DETROIT        CLOUDY    33  26  75 SW7       30.28F WCI  27
FLINT          CLOUDY    32  27  81 W5        30.27F WCI  27
GROSSE ILE     CLOUDY    34  27  75 W5        30.27F WCI  30
HILLSDALE      CLOUDY    29  25  87 W8        30.26F WCI  21
HOWELL         CLOUDY    31  28  90 W6        30.25F WCI  25

CITY           SKY/WX    TMP DP  RH WIND       PRES   REMARKS
JACKSON        CLOUDY    29  23  78 W10       30.27F WCI  20
LAMBERTVILLE   MOCLDY    32  24  73 W6        30.30S WCI  26
LANSING        MOCLDY    27  20  75 W10       30.29F WCI  17
LAPEER         LGT SNOW  31  29  93 W3        30.26F
MASON          CLOUDY    28  23  83 W10       30.28S WCI  18
MONROE         CLOUDY    33  26  74 W7        30.28F WCI  27
MT. CLEMENS    CLOUDY    33  27  78 W5        30.26F WCI  29
PONTIAC        PTCLDY    28  26  92 NW5       30.24F WCI  23
PORT HOPE        N/A     29  27  92 CALM      30.24F
PORT HURON     CLOUDY    32  25  74 CALM      30.27F
TRI CITIES     CLOUDY    30  26  85 W7        30.27F FOG     WCI  23
MIDLAND        FAIR      30  20  67 W7        30.26F WCI  23
TROY           CLOUDY    33  29  85 CALM      30.28F
SAGINAW HB     MOCLDY    30  30 100 SW3       30.27F FOG
$$
MIZ043>046-050>051-056>058-064>065-071>073-077>080-060400-
SOUTHWEST LOWER MICHIGAN

CITY           SKY/WX    TMP DP  RH WIND       PRES   REMARKS
BATTLE CREEK   CLOUDY    27  20  75 NW7       30.29F WCI  19
BENTON HARBOR  CLOUDY    28  23  81 SW3       30.33R
BIG RAPIDS     CLOUDY    24  18  75 W3        30.26F
COLDWATER      CLOUDY    28  24  82 W6        30.28F WCI  22
FREMONT        CLOUDY    23  18  80 CALM      30.29F
HOLLAND        CLOUDY    27  21  78 CALM      30.31F
GRAND RAPIDS   CLOUDY    27  18  69 NW3       30.29F
IONIA          CLOUDY    26  19  76 W7        30.28F WCI  18
KALAMAZOO      CLOUDY    28  20  71 CALM      30.30F
LUDINGTON      CLOUDY    26  18  74 CALM      30.29F
MARSHALL       CLOUDY    28  22  77 W9        30.28F WCI  19
MOUNT PLEASANT PTCLDY    28  18  65 W7        30.27F WCI  21
MUSKEGON       CLOUDY    27  18  69 CALM      30.31F
SOUTH HAVEN    CLOUDY    28  24  86 CALM      30.32R
$$
MIZ016>042-060400-
NORTHERN LOWER MICHIGAN

CITY           SKY/WX    TMP DP  RH WIND       PRES   REMARKS
ALPENA         CLOUDY    18  15  88 W3        30.25F
BEAVER ISLAND  CLOUDY    27  18  69 SW8       30.22F WCI  19
BELLAIRE       CLOUDY    18  15  91 CALM      30.27S
CADILLAC       CLOUDY    16  14  90 CALM      30.23F
CHARLEVOIX     MOCLDY    26  17  68 SW5       30.27F WCI  20
FRANKFORT      PTCLDY    27  18  69 W5        30.27F WCI  21
GAYLORD        CLOUDY    19  14  81 SW7       30.21S WCI  10
GRAYLING       CLOUDY    18  15  90 CALM      30.24F
HARBOR SPRINGS CLOUDY    26  18  71 SW9       30.23F WCI  17
HOUGHTON LAKE  CLOUDY    21  18  88 W3        30.24F
MANISTEE       CLOUDY    21  16  79 CALM      30.29F
OSCODA         CLOUDY    27  23  86 CALM      30.25F
PELLSTON       PTCLDY    11   9  92 CALM      30.23F FOG
ROGERS CITY    PTCLDY    20  13  75 S5        30.25F WCI  13
TRAVERSE CITY  PTCLDY    22  14  71 CALM      30.26F
$$
MIZ007>008-015-060400-
EASTERN UPPER MICHIGAN

CITY           SKY/WX    TMP DP  RH WIND       PRES   REMARKS
KINROSS        CLOUDY    18  18 100 S5        30.20F WCI  11
MACKINAC ISLAN CLEAR     22  18  85 SW8       30.21F WCI  13
NEWBERRY       CLOUDY    17  13  86 SW5       30.18F WCI  10
S. S. MARIE    CLOUDY    20  12  71 S6        30.19F WCI  12
$$
MIZ004>006-011>014-085-060400-
CENTRAL UPPER MICHIGAN

CITY           SKY/WX    TMP DP  RH WIND       PRES   REMARKS
MANISTIQUE     CLOUDY    26  18  71 SW6       30.20F WCI  19
ESCANABA       CLOUDY    27  16  63 SW13      30.19F WCI  16
MENOMINEE      CLOUDY    21  14  73 SW9       30.23F WCI  11
SAWYER-GWINN   CLOUDY    23  12  63 S12       30.11F WCI  12
$$
MIZ001>003-009>011-084-060400-
WESTERN UPPER MICHIGAN

CITY           SKY/WX    TMP DP  RH WIND       PRES   REMARKS
IRON MOUNTAIN  CLOUDY    25   9  50 SW8       30.14F WCI  16
HOUGHTON       CLOUDY    25  11  55 SW7       30.05F WCI  17
COPPER HARBOR    N/A     27  15  61 VRB7      30.07F WCI  19
IRONWOOD       CLOUDY    25  10  54 SW15      30.08S WCI  12
$$

ABBREVIATIONS USED IN REMARKS
   TC - TEMPERATURE IN CELSIUS
  WCI - WIND CHILL INDEX
   HX - HEAT INDEX
  VSB - VISIBILITY





USA.gov is the U.S. government's official web portal to all federal, state and local government web resources and services.